Time,TemperatureF,DewpointF,PressureIn,WindDirection,WindDirectionDegrees,WindSpeedMPH,WindSpeedGustMPH,Humidity,HourlyPrecipIn,Conditions,Clouds,dailyrainin,SoftwareType,DateUTC
2013-10-29 00:04:00,47.8,24.0,30.01,South,186,0.0,1.0,40,0.00,,,0.00,weatherlink.com 1.10,2013-10-29 06:04:00,
2013-10-29 00:19:00,45.8,25.0,30.01,South,186,0.0,1.0,44,0.00,,,0.00,weatherlink.com 1.10,2013-10-29 06:19:00,
2013-10-29 01:04:00,47.1,24.0,30.01,South,186,0.0,4.0,40,0.00,,,0.00,weatherlink.com 1.10,2013-10-29 07:04:00,
2013-10-29 01:19:00,46.9,25.0,30.01,South,186,0.0,0.0,42,0.00,,,0.00,weatherlink.com 1.10,2013-10-29 07:19:00,
2013-10-29 01:34:00,45.3,24.0,30.01,South,186,0.0,1.0,43,0.00,,,0.00,weatherlink.com 1.10,2013-10-29 07:34:00,
2013-10-29 01:49:00,43.5,25.0,30.01,South,186,0.0,3.0,48,0.00,,,0.00,weatherlink.com 1.10,2013-10-29 07:49:00,
2013-10-29 02:04:00,42.5,24.0,30.01,South,186,0.0,2.0,49,0.00,,,0.00,weatherlink.com 1.10,2013-10-29 08:04:00,
2013-10-29 02:20:00,42.3,25.0,30.01,South,186,0.0,2.0,51,0.00,,,0.00,weatherlink.com 1.10,2013-10-29 08:20:00,
2013-10-29 02:35:00,42.0,24.0,30.01,South,186,0.0,0.0,50,0.00,,,0.00,weatherlink.com 1.10,2013-10-29 08:35:00,
2013-10-29 03:21:00,49.6,22.0,30.00,SW,221,10.0,15.0,34,0.00,,,0.00,weatherlink.com 1.10,2013-10-29 09:21:00,
2013-10-29 03:34:00,50.0,22.0,30.00,SSW,210,4.0,15.0,34,0.00,,,0.00,weatherlink.com 1.10,2013-10-29 09:34:00,
2013-10-29 04:04:00,50.1,22.0,30.01,SW,228,5.0,20.0,33,0.00,,,0.00,weatherlink.com 1.10,2013-10-29 10:04:00,
2013-10-29 04:49:00,48.6,21.0,30.00,SW,217,3.0,11.0,34,0.00,,,0.00,weatherlink.com 1.10,2013-10-29 10:49:00,
2013-10-29 05:19:00,47.7,21.0,30.00,SW,214,6.0,8.0,35,0.00,,,0.00,weatherlink.com 1.10,2013-10-29 11:19:00,
2013-10-29 05:50:00,46.8,22.0,30.00,SSW,196,4.0,10.0,37,0.00,,,0.00,weatherlink.com 1.10,2013-10-29 11:50:00,
2013-10-29 06:05:00,46.1,22.0,30.00,South,190,4.0,9.0,38,0.00,,,0.00,weatherlink.com 1.10,2013-10-29 12:05:00,
2013-10-29 06:20:00,45.3,21.0,30.00,South,187,1.0,9.0,39,0.00,,,0.00,weatherlink.com 1.10,2013-10-29 12:20:00,
2013-10-29 07:05:00,40.5,22.0,30.01,South,187,0.0,1.0,47,0.00,,,0.00,weatherlink.com 1.10,2013-10-29 13:05:00,
2013-10-29 07:20:00,39.9,22.0,30.02,South,187,0.0,3.0,50,0.00,,,0.00,weatherlink.com 1.10,2013-10-29 13:20:00,
2013-10-29 08:05:00,38.9,23.0,30.04,South,187,0.0,0.0,53,0.00,,,0.00,weatherlink.com 1.10,2013-10-29 14:05:00,
2013-10-29 08:20:00,37.5,24.0,30.04,South,187,0.0,1.0,58,0.00,,,0.00,weatherlink.com 1.10,2013-10-29 14:20:00,
2013-10-29 08:50:00,43.7,27.0,30.06,South,187,0.0,4.0,53,0.00,,,0.00,weatherlink.com 1.10,2013-10-29 14:50:00,
2013-10-29 09:35:00,49.5,27.0,30.05,South,191,0.0,5.0,42,0.00,,,0.00,weatherlink.com 1.10,2013-10-29 15:35:00,
2013-10-29 09:50:00,50.2,28.0,30.05,SSW,201,1.0,5.0,42,0.00,,,0.00,weatherlink.com 1.10,2013-10-29 15:50:00,
2013-10-29 10:05:00,50.9,28.0,30.04,SW,227,1.0,9.0,41,0.00,,,0.00,weatherlink.com 1.10,2013-10-29 16:05:00,
2013-10-29 10:20:00,52.7,26.0,30.04,WSW,247,7.0,14.0,35,0.00,,,0.00,weatherlink.com 1.10,2013-10-29 16:20:00,
2013-10-29 11:05:00,54.5,26.0,30.02,West,271,7.0,13.0,33,0.00,,,0.00,weatherlink.com 1.10,2013-10-29 17:05:00,
2013-10-29 11:20:00,54.4,27.0,30.01,West,264,10.0,12.0,35,0.00,,,0.00,weatherlink.com 1.10,2013-10-29 17:20:00,
2013-10-29 11:35:00,55.3,26.0,30.01,West,271,7.0,14.0,33,0.00,,,0.00,weatherlink.com 1.10,2013-10-29 17:35:00,
2013-10-29 11:50:00,55.6,27.0,30.01,West,263,6.0,17.0,33,0.00,,,0.00,weatherlink.com 1.10,2013-10-29 17:50:00,
2013-10-29 12:21:00,56.1,25.0,29.99,West,279,3.0,17.0,30,0.00,,,0.00,weatherlink.com 1.10,2013-10-29 18:21:00,
2013-10-29 12:36:00,56.5,25.0,29.99,SW,229,11.0,16.0,30,0.00,,,0.00,weatherlink.com 1.10,2013-10-29 18:36:00,
2013-10-29 13:06:00,58.0,26.0,29.96,WSW,244,11.0,18.0,29,0.00,,,0.00,weatherlink.com 1.10,2013-10-29 19:06:00,
2013-10-29 14:06:00,59.0,26.0,29.93,SW,227,7.0,18.0,28,0.00,,,0.00,weatherlink.com 1.10,2013-10-29 20:06:00,
2013-10-29 14:21:00,59.0,26.0,29.92,SW,232,11.0,20.0,28,0.00,,,0.00,weatherlink.com 1.10,2013-10-29 20:21:00,
2013-10-29 14:36:00,58.4,25.0,29.91,WSW,242,10.0,25.0,28,0.00,,,0.00,weatherlink.com 1.10,2013-10-29 20:36:00,
2013-10-29 14:51:00,59.0,25.0,29.91,SW,236,7.0,20.0,27,0.00,,,0.00,weatherlink.com 1.10,2013-10-29 20:51:00,
2013-10-29 15:06:00,59.0,25.0,29.91,SW,218,9.0,22.0,27,0.00,,,0.00,weatherlink.com 1.10,2013-10-29 21:06:00,
2013-10-29 15:21:00,59.5,24.0,29.90,SW,232,10.0,20.0,26,0.00,,,0.00,weatherlink.com 1.10,2013-10-29 21:21:00,
2013-10-29 15:36:00,59.5,27.0,29.89,SSW,200,6.0,18.0,29,0.00,,,0.00,weatherlink.com 1.10,2013-10-29 21:36:00,
2013-10-29 15:51:00,59.0,26.0,29.90,SW,214,2.0,20.0,28,0.00,,,0.00,weatherlink.com 1.10,2013-10-29 21:51:00,
2013-10-29 16:06:00,59.0,26.0,29.89,SSW,213,10.0,21.0,28,0.00,,,0.00,weatherlink.com 1.10,2013-10-29 22:06:00,
2013-10-29 16:21:00,59.0,26.0,29.89,SW,220,1.0,18.0,28,0.00,,,0.00,weatherlink.com 1.10,2013-10-29 22:21:00,
2013-10-29 16:36:00,58.7,25.0,29.89,SW,227,8.0,18.0,28,0.00,,,0.00,weatherlink.com 1.10,2013-10-29 22:36:00,
2013-10-29 16:51:00,58.6,25.0,29.88,WSW,251,1.0,17.0,28,0.00,,,0.00,weatherlink.com 1.10,2013-10-29 22:51:00,
2013-10-29 17:06:00,58.8,26.0,29.88,SSW,206,9.0,15.0,28,0.00,,,0.00,weatherlink.com 1.10,2013-10-29 23:06:00,
2013-10-29 17:21:00,57.4,24.0,29.87,South,186,6.0,17.0,28,0.00,,,0.00,weatherlink.com 1.10,2013-10-29 23:21:00,
2013-10-29 17:36:00,56.4,24.0,29.87,SW,219,6.0,16.0,29,0.00,,,0.00,weatherlink.com 1.10,2013-10-29 23:36:00,
2013-10-29 17:51:00,55.5,24.0,29.86,SW,225,8.0,12.0,30,0.00,,,0.00,weatherlink.com 1.10,2013-10-29 23:51:00,
2013-10-29 18:07:00,53.7,24.0,29.86,SSW,192,5.0,11.0,32,0.00,,,0.00,weatherlink.com 1.10,2013-10-30 00:07:00,
2013-10-29 18:21:00,51.9,24.0,29.86,South,186,0.0,8.0,34,0.00,,,0.00,weatherlink.com 1.10,2013-10-30 00:21:00,
2013-10-29 18:36:00,52.5,24.0,29.86,South,173,7.0,12.0,33,0.00,,,0.00,weatherlink.com 1.10,2013-10-30 00:36:00,
2013-10-29 18:51:00,52.8,24.0,29.86,South,169,11.0,11.0,33,0.00,,,0.00,weatherlink.com 1.10,2013-10-30 00:51:00,
2013-10-29 19:06:00,52.8,24.0,29.86,South,186,1.0,10.0,33,0.00,,,0.00,weatherlink.com 1.10,2013-10-30 01:06:00,
2013-10-29 19:21:00,52.6,25.0,29.86,South,183,12.0,14.0,34,0.00,,,0.00,weatherlink.com 1.10,2013-10-30 01:21:00,
2013-10-29 19:36:00,52.8,24.0,29.86,South,184,3.0,19.0,32,0.00,,,0.00,weatherlink.com 1.10,2013-10-30 01:36:00,
2013-10-29 19:51:00,53.2,23.0,29.86,South,184,10.0,17.0,31,0.00,,,0.00,weatherlink.com 1.10,2013-10-30 01:51:00,
2013-10-29 20:06:00,53.0,23.0,29.87,SSW,200,9.0,16.0,31,0.00,,,0.00,weatherlink.com 1.10,2013-10-30 02:06:00,
2013-10-29 20:21:00,53.3,22.0,29.87,SW,219,7.0,22.0,30,0.00,,,0.00,weatherlink.com 1.10,2013-10-30 02:21:00,
2013-10-29 20:36:00,53.6,23.0,29.87,SSW,192,9.0,20.0,30,0.00,,,0.00,weatherlink.com 1.10,2013-10-30 02:36:00,
2013-10-29 20:51:00,53.6,23.0,29.87,SW,221,3.0,21.0,31,0.00,,,0.00,weatherlink.com 1.10,2013-10-30 02:51:00,
2013-10-29 21:07:00,53.6,23.0,29.87,SW,219,15.0,27.0,31,0.00,,,0.00,weatherlink.com 1.10,2013-10-30 03:07:00,
2013-10-29 21:22:00,53.5,23.0,29.87,SW,216,16.0,25.0,31,0.00,,,0.00,weatherlink.com 1.10,2013-10-30 03:22:00,
2013-10-29 21:37:00,53.0,24.0,29.87,South,183,14.0,22.0,32,0.00,,,0.00,weatherlink.com 1.10,2013-10-30 03:37:00,
2013-10-29 21:52:00,53.3,24.0,29.87,SW,222,11.0,23.0,32,0.00,,,0.00,weatherlink.com 1.10,2013-10-30 03:52:00,
2013-10-29 22:07:00,53.3,25.0,29.87,WSW,237,16.0,24.0,33,0.00,,,0.00,weatherlink.com 1.10,2013-10-30 04:07:00,
2013-10-29 22:22:00,53.2,25.0,29.87,SW,234,13.0,21.0,33,0.00,,,0.00,weatherlink.com 1.10,2013-10-30 04:22:00,
2013-10-29 22:37:00,52.5,27.0,29.89,WSW,246,13.0,23.0,37,0.00,,,0.00,weatherlink.com 1.10,2013-10-30 04:37:00,
2013-10-29 22:52:00,50.8,28.0,29.90,West,261,9.0,24.0,42,0.00,,,0.00,weatherlink.com 1.10,2013-10-30 04:52:00,
2013-10-29 23:07:00,47.3,33.0,29.95,West,266,15.0,25.0,58,0.00,,,0.00,weatherlink.com 1.10,2013-10-30 05:07:00,
2013-10-29 23:22:00,42.4,36.0,29.96,WSW,253,11.0,23.0,79,0.01,,,0.01,weatherlink.com 1.10,2013-10-30 05:22:00,
2013-10-29 23:37:00,41.1,36.0,29.93,West,262,0.0,7.0,83,0.02,,,0.02,weatherlink.com 1.10,2013-10-30 05:37:00,
2013-10-29 23:52:00,40.7,36.0,29.93,West,262,0.0,1.0,84,0.02,,,0.02,weatherlink.com 1.10,2013-10-30 05:52:00,